TimeEST,TemperatureF,Dew PointF,Humidity,Sea Level PressureIn,VisibilityMPH,Wind Direction,Wind SpeedMPH,Gust SpeedMPH,PrecipitationIn,Events,Conditions,WindDirDegrees,DateUTC
12:15 AM,8.6,-2.2,62,29.87,10.0,SSW,3.5,-,N/A,,Clear,200,2013-01-04 05:15:00
12:55 AM,8.6,-2.2,62,29.86,10.0,Calm,Calm,-,N/A,,Partly Cloudy,0,2013-01-04 05:55:00
1:15 AM,6.8,-2.2,67,29.86,10.0,SW,3.5,-,N/A,,Mostly Cloudy,230,2013-01-04 06:15:00
1:35 AM,8.6,-0.4,67,29.85,10.0,SSW,4.6,-,N/A,,Overcast,210,2013-01-04 06:35:00
1:55 AM,8.6,-0.4,67,29.84,10.0,SSW,4.6,-,N/A,,Mostly Cloudy,200,2013-01-04 06:55:00
2:35 AM,6.8,-2.2,67,29.84,10.0,SSW,5.8,-,N/A,,Clear,210,2013-01-04 07:35:00
2:55 AM,6.8,-2.2,67,29.84,10.0,SW,4.6,-,N/A,,Clear,220,2013-01-04 07:55:00
3:15 AM,6.8,-2.2,67,29.83,10.0,SW,3.5,-,N/A,,Clear,230,2013-01-04 08:15:00
3:35 AM,6.8,-0.4,72,29.82,10.0,South,3.5,-,N/A,,Clear,180,2013-01-04 08:35:00
3:55 AM,6.8,-2.2,67,29.82,10.0,South,4.6,-,N/A,,Clear,190,2013-01-04 08:55:00
4:15 AM,5.0,-2.2,72,29.82,10.0,SSW,3.5,-,N/A,,Clear,200,2013-01-04 09:15:00
4:35 AM,3.2,-2.2,78,29.81,10.0,SSW,5.8,-,N/A,,Clear,200,2013-01-04 09:35:00
4:55 AM,3.2,-0.4,85,29.81,10.0,SSW,5.8,-,N/A,,Clear,210,2013-01-04 09:55:00
5:15 AM,3.2,-2.2,78,29.81,10.0,SSW,3.5,-,N/A,,Clear,200,2013-01-04 10:15:00
5:35 AM,5.0,-2.2,72,29.80,10.0,SSW,5.8,-,N/A,,Mostly Cloudy,210,2013-01-04 10:35:00
5:55 AM,3.2,-2.2,78,29.81,10.0,SSW,5.8,-,N/A,,Mostly Cloudy,210,2013-01-04 10:55:00
6:15 AM,3.2,-2.2,78,29.82,10.0,SW,4.6,-,N/A,,Partly Cloudy,220,2013-01-04 11:15:00
6:35 AM,3.2,-0.4,85,29.82,10.0,SW,4.6,-,N/A,,Scattered Clouds,220,2013-01-04 11:35:00
7:15 AM,6.8,1.4,79,29.82,10.0,SSW,3.5,-,N/A,,Overcast,200,2013-01-04 12:15:00
7:35 AM,6.8,1.4,79,29.81,10.0,SW,4.6,-,N/A,,Overcast,220,2013-01-04 12:35:00
7:55 AM,6.8,3.2,85,29.80,10.0,SW,5.8,-,N/A,,Overcast,220,2013-01-04 12:55:00
8:15 AM,6.8,1.4,79,29.79,10.0,SSW,6.9,-,N/A,,Overcast,210,2013-01-04 13:15:00
8:35 AM,8.6,3.2,79,29.79,10.0,SSW,4.6,-,N/A,,Scattered Clouds,200,2013-01-04 13:35:00
8:55 AM,8.6,3.2,79,29.78,10.0,South,3.5,-,N/A,,Mostly Cloudy,180,2013-01-04 13:55:00
9:15 AM,8.6,3.2,79,29.78,10.0,SSW,3.5,-,N/A,,Mostly Cloudy,210,2013-01-04 14:15:00
9:35 AM,10.4,3.2,73,29.78,10.0,South,3.5,-,N/A,,Partly Cloudy,180,2013-01-04 14:35:00
9:55 AM,10.4,6.8,85,29.78,10.0,SSW,4.6,-,N/A,,Clear,210,2013-01-04 14:55:00
10:15 AM,10.4,6.8,85,29.76,10.0,SW,6.9,-,N/A,,Clear,220,2013-01-04 15:15:00
10:35 AM,12.2,8.6,85,29.75,10.0,SSW,5.8,-,N/A,,Mostly Cloudy,210,2013-01-04 15:35:00
10:55 AM,15.8,8.6,73,29.74,10.0,South,4.6,-,N/A,,Mostly Cloudy,190,2013-01-04 15:55:00
11:15 AM,19.4,12.2,74,29.73,10.0,SW,5.8,-,N/A,,Mostly Cloudy,220,2013-01-04 16:15:00
11:35 AM,21.2,12.2,68,29.72,10.0,SSW,5.8,-,N/A,,Overcast,200,2013-01-04 16:35:00
11:55 AM,21.2,12.2,68,29.69,10.0,South,4.6,-,N/A,,Overcast,190,2013-01-04 16:55:00
12:15 PM,23.0,14.0,68,29.68,10.0,South,6.9,-,N/A,,Overcast,190,2013-01-04 17:15:00
12:35 PM,23.0,15.8,74,29.67,10.0,South,4.6,-,N/A,,Overcast,170,2013-01-04 17:35:00
12:55 PM,24.8,15.8,69,29.66,10.0,South,5.8,-,N/A,,Overcast,190,2013-01-04 17:55:00
1:15 PM,24.8,15.8,69,29.66,10.0,South,4.6,-,N/A,,Mostly Cloudy,190,2013-01-04 18:15:00
1:35 PM,24.8,17.6,74,29.66,10.0,South,4.6,-,N/A,,Mostly Cloudy,190,2013-01-04 18:35:00
1:55 PM,26.6,17.6,69,29.66,10.0,South,8.1,-,N/A,,Mostly Cloudy,180,2013-01-04 18:55:00
2:15 PM,26.6,17.6,69,29.66,10.0,South,4.6,-,N/A,,Partly Cloudy,190,2013-01-04 19:15:00
2:35 PM,28.4,17.6,64,29.65,10.0,South,6.9,-,N/A,,Clear,170,2013-01-04 19:35:00
2:55 PM,28.4,19.4,69,29.65,10.0,South,5.8,-,N/A,,Clear,190,2013-01-04 19:55:00
3:35 PM,28.4,19.4,69,29.65,10.0,South,5.8,-,N/A,,Mostly Cloudy,190,2013-01-04 20:35:00
3:55 PM,30.2,19.4,64,29.65,10.0,SSW,6.9,-,N/A,,Overcast,200,2013-01-04 20:55:00
4:15 PM,30.2,19.4,64,29.64,10.0,SSW,6.9,-,N/A,,Mostly Cloudy,200,2013-01-04 21:15:00
4:35 PM,30.2,19.4,64,29.65,10.0,South,6.9,-,N/A,,Mostly Cloudy,190,2013-01-04 21:35:00
4:55 PM,28.4,19.4,69,29.65,10.0,South,5.8,-,N/A,,Mostly Cloudy,180,2013-01-04 21:55:00
5:15 PM,28.4,19.4,69,29.65,10.0,Calm,Calm,-,N/A,,Overcast,0,2013-01-04 22:15:00
5:35 PM,26.6,17.6,69,29.65,10.0,SSW,4.6,-,N/A,,Mostly Cloudy,210,2013-01-04 22:35:00
6:15 PM,26.6,19.4,74,29.66,10.0,SW,5.8,-,N/A,,Scattered Clouds,220,2013-01-04 23:15:00
6:35 PM,26.6,17.6,69,29.66,10.0,South,3.5,-,N/A,,Scattered Clouds,190,2013-01-04 23:35:00
6:55 PM,26.6,17.6,69,29.66,10.0,Calm,Calm,-,N/A,,Mostly Cloudy,0,2013-01-04 23:55:00
7:15 PM,26.6,19.4,74,29.66,10.0,ESE,4.6,-,N/A,,Overcast,120,2013-01-05 00:15:00
7:35 PM,26.6,19.4,74,29.67,10.0,SE,5.8,-,N/A,,Overcast,140,2013-01-05 00:35:00
7:55 PM,26.6,19.4,74,29.67,10.0,South,5.8,-,N/A,,Overcast,170,2013-01-05 00:55:00
8:15 PM,28.4,19.4,69,29.67,10.0,South,6.9,-,N/A,,Overcast,190,2013-01-05 01:15:00
8:35 PM,28.4,19.4,69,29.66,10.0,SSW,5.8,-,N/A,,Overcast,210,2013-01-05 01:35:00
8:55 PM,28.4,19.4,69,29.67,10.0,SSW,9.2,-,N/A,,Overcast,210,2013-01-05 01:55:00
9:15 PM,28.4,19.4,69,29.67,10.0,SSW,6.9,-,N/A,,Overcast,210,2013-01-05 02:15:00
9:35 PM,28.4,19.4,69,29.67,10.0,SSW,5.8,-,N/A,,Overcast,200,2013-01-05 02:35:00
9:55 PM,28.4,19.4,69,29.68,10.0,SSW,4.6,-,N/A,,Overcast,210,2013-01-05 02:55:00
10:35 PM,28.4,19.4,69,29.67,10.0,SSE,3.5,-,N/A,,Overcast,160,2013-01-05 03:35:00
10:55 PM,28.4,21.2,74,29.67,10.0,SE,3.5,-,N/A,,Overcast,140,2013-01-05 03:55:00
11:15 PM,28.4,21.2,74,29.67,10.0,ESE,4.6,-,N/A,,Overcast,110,2013-01-05 04:15:00
11:35 PM,28.4,21.2,74,29.66,10.0,South,5.8,-,N/A,,Overcast,180,2013-01-05 04:35:00
11:55 PM,30.2,21.2,69,29.65,10.0,South,6.9,-,N/A,,Overcast,190,2013-01-05 04:55:00